W4RJF Weather Reports


Display with metric or nautical units.
time (UTC)temp
F
wind
direction
speed
MPH
gust
MPH
rain 1hr
in
rain 24hr
in
rain mn
in
humidity
%
barometer
mb
20260506051008 63 192 1.0 4.0 0.00 0.00 0.00 77 1015.8
20260506050506 63 202 1.0 4.0 0.00 0.00 0.00 76 1015.9
20260506045007 64 194 2.0 6.0 0.00 0.00 0.00 76 1015.9
20260506044008 64 200 1.0 5.0 0.00 0.00 0.00 76 1016.0
20260506043508 64 200 2.0 5.0 0.00 0.00 0.00 76 1016.0
20260506043025 64 202 2.0 6.0 0.00 0.00 0.00 75 1016.0
20260506042505 64 196 1.0 6.0 0.00 0.00 0.00 75 1016.0
20260506042003 64 210 1.0 5.0 0.00 0.00 0.00 75 1016.0
20260506041511 64 182 1.0 5.0 0.00 0.00 0.00 75 1016.1
20260506041004 64 195 2.0 5.0 0.00 0.00 0.00 75 1016.1
20260506040506 64 177 1.0 6.0 0.00 0.00 0.00 74 1016.1
20260506040016 65 201 2.0 6.0 0.00 0.00 0.00 74 1016.0
20260506035504 65 207 1.0 4.0 0.00 0.00 0.00 74 1015.9
20260506035007 65 182 2.0 6.0 0.00 0.00 0.00 74 1016.0
20260506034520 65 183 1.0 6.0 0.00 0.00 0.00 73 1016.1
20260506034005 65 200 2.0 5.0 0.00 0.00 0.00 73 1016.2
20260506033505 65 240 1.0 7.0 0.00 0.00 0.00 73 1016.2
20260506033032 65 150 2.0 7.0 0.00 0.00 0.00 73 1016.1
20260506032508 65 200 1.0 5.0 0.00 0.00 0.00 72 1016.2
20260506032011 65 195 2.0 5.0 0.00 0.00 0.00 72 1016.2
20260506031517 66 196 1.0 5.0 0.00 0.00 0.00 71 1016.3
20260506031005 66 227 2.0 5.0 0.00 0.00 0.00 71 1016.3
20260506030506 66 196 2.0 5.0 0.00 0.00 0.00 71 1016.4
20260506030035 66 182 0.0 6.0 0.00 0.00 0.00 70 1016.4
20260506025504 66 266 2.0 6.0 0.00 0.00 0.00 69 1016.4
20260506025004 66 176 1.0 4.0 0.00 0.00 0.00 69 1016.4
20260506024527 66 184 2.0 4.0 0.00 0.00 0.00 68 1016.4
20260506024005 67 186 1.0 4.0 0.00 0.00 0.00 67 1016.4
20260506023508 67 190 1.0 4.0 0.00 0.00 0.00 67 1016.4
20260506023023 67 189 2.0 4.0 0.00 0.00 0.00 67 1016.3
20260506022506 67 192 1.0 4.0 0.00 0.00 0.00 66 1016.4
20260506022006 67 200 1.0 5.0 0.00 0.00 0.00 66 1016.4
20260506021524 68 202 1.0 5.0 0.00 0.00 0.00 65 1016.3
20260506021008 68 173 1.0 3.0 0.00 0.00 0.00 65 1016.1
20260506020512 68 185 1.0 6.0 0.00 0.00 0.00 64 1016.1
20260506020013 68 205 2.0 8.0 0.00 0.00 0.00 64 1016.1
20260506015504 68 196 2.0 8.0 0.00 0.00 0.00 63 1016.1
20260506015007 69 183 3.0 6.0 0.00 0.00 0.00 63 1016.0
20260506014516 69 186 1.0 4.0 0.00 0.00 0.00 62 1015.9
20260506014004 69 187 2.0 4.0 0.00 0.00 0.00 62 1015.8
20260506013506 69 165 1.0 7.0 0.00 0.00 0.00 61 1015.8
20260506013021 69 196 3.0 7.0 0.00 0.00 0.00 61 1015.7
20260506012506 69 178 1.0 3.0 0.00 0.00 0.00 60 1015.6
20260506012011 70 200 1.0 4.0 0.00 0.00 0.00 60 1015.5
20260506011534 70 202 2.0 5.0 0.00 0.00 0.00 59 1015.4
20260506011011 70 209 1.0 5.0 0.00 0.00 0.00 59 1015.5
20260506010507 70 184 1.0 4.0 0.00 0.00 0.00 58 1015.4
20260506010026 70 205 1.0 4.0 0.00 0.00 0.00 58 1015.3
20260506005508 71 195 1.0 3.0 0.00 0.00 0.00 57 1015.2
20260506005003 71 200 1.0 5.0 0.00 0.00 0.00 57 1015.1
20260506004525 71 188 2.0 5.0 0.00 0.00 0.00 56 1015.0
20260506004004 71 167 1.0 4.0 0.00 0.00 0.00 56 1015.1
20260506003507 71 190 1.0 5.0 0.00 0.00 0.00 56 1015.0
20260506002506 72 194 2.0 4.0 0.00 0.00 0.00 55 1014.9
20260506002012 72 190 1.0 4.0 0.00 0.00 0.00 55 1014.9
20260506001523 72 194 2.0 4.0 0.00 0.00 0.00 55 1014.9
20260506001010 73 192 1.0 4.0 0.00 0.00 0.00 54 1014.8
20260506000511 73 158 1.0 3.0 0.00 0.00 0.00 54 1014.8
20260506000024 73 192 1.0 3.0 0.00 0.00 0.00 54 1014.8
20260505235507 73 188 0.0 4.0 0.00 0.00 0.00 54 1014.6
20260505235008 74 212 1.0 4.0 0.00 0.00 0.00 53 1014.5
20260505234526 74 197 2.0 3.0 0.00 0.00 0.00 53 1014.4
20260505234005 74 191 1.0 3.0 0.00 0.00 0.00 53 1014.4
20260505233507 74 182 1.0 4.0 0.00 0.00 0.00 52 1014.4
20260505232505 75 157 1.0 4.0 0.00 0.00 0.00 51 1014.3
20260505232005 75 243 1.0 4.0 0.00 0.00 0.00 50 1014.4
20260505231010 76 229 2.0 4.0 0.00 0.00 0.00 49 1014.4
20260505230506 76 195 2.0 5.0 0.00 0.00 0.00 48 1014.5
20260505230031 76 218 2.0 5.0 0.00 0.00 0.00 48 1014.4
20260505225509 76 188 1.0 5.0 0.00 0.00 0.00 48 1014.4
20260505225011 76 176 2.0 5.0 0.00 0.00 0.00 48 1014.5
20260505224532 77 188 1.0 4.0 0.00 0.00 0.00 47 1014.5
20260505224008 77 192 1.0 4.0 0.00 0.00 0.00 47 1014.4
20260505223512 77 202 2.0 4.0 0.00 0.00 0.00 46 1014.4
20260505223024 77 188 1.0 4.0 0.00 0.00 0.00 47 1014.6
20260505222504 77 202 1.0 6.0 0.00 0.00 0.00 47 1014.7
20260505222009 77 154 1.0 6.0 0.00 0.00 0.00 47 1014.8
20260505221011 77 205 2.0 5.0 0.00 0.00 0.00 47 1014.7
20260505220510 77 183 3.0 7.0 0.00 0.00 0.00 46 1014.6
20260505220032 78 202 4.0 7.0 0.00 0.00 0.00 45 1014.9
20260505215507 78 200 1.0 5.0 0.00 0.00 0.00 47 1014.7
20260505215007 78 182 2.0 5.0 0.00 0.00 0.00 46 1014.6
20260505214532 78 189 1.0 6.0 0.00 0.00 0.00 46 1014.6
20260505214010 78 233 2.0 6.0 0.00 0.00 0.00 44 1014.6
20260505213512 78 188 0.0 6.0 0.00 0.00 0.00 44 1014.6
20260505213026 79 182 1.0 8.0 0.00 0.00 0.00 43 1014.6
20260505212510 79 200 2.0 8.0 0.00 0.00 0.00 42 1014.6
20260505212012 80 202 2.0 6.0 0.00 0.00 0.00 42 1014.6
20260505211521 80 192 2.0 8.0 0.00 0.00 0.00 42 1014.8
20260505211005 80 185 3.0 8.0 0.00 0.00 0.00 41 1014.7
20260505210510 80 194 2.0 8.0 0.00 0.00 0.00 39 1014.6
20260505205507 82 200 2.0 6.0 0.00 0.00 0.00 40 1014.9
20260505205007 81 246 2.0 6.0 0.00 0.00 0.00 40 1014.9
20260505204009 81 165 3.0 6.0 0.00 0.00 0.00 40 1014.8
20260505203510 80 190 2.0 5.0 0.00 0.00 0.00 41 1014.9
20260505203029 80 214 2.0 5.0 0.00 0.00 0.00 41 1014.9
20260505202509 80 197 2.0 9.0 0.00 0.00 0.00 42 1014.8
20260505202012 81 181 2.0 9.0 0.00 0.00 0.00 40 1014.8
20260505201532 82 215 2.0 9.0 0.00 0.00 0.00 40 1014.8
20260505201009 82 167 1.0 7.0 0.00 0.00 0.00 40 1015.0
20260505200508 81 245 2.0 7.0 0.00 0.00 0.00 40 1015.0
20260505200019 81 180 1.0 7.0 0.00 0.00 0.00 41 1015.1
20260505195511 81 175 1.0 6.0 0.00 0.00 0.00 41 1015.1
20260505195012 81 153 2.0 8.0 0.00 0.00 0.00 40 1015.3
20260505194008 80 203 1.0 6.0 0.00 0.00 0.00 42 1015.5
20260505193023 81 215 0.0 5.0 0.00 0.00 0.00 41 1015.6
20260505192511 81 211 1.0 6.0 0.00 0.00 0.00 41 1015.6
20260505192008 82 184 3.0 6.0 0.00 0.00 0.00 41 1015.7
20260505191526 81 251 1.0 5.0 0.00 0.00 0.00 41 1015.8
20260505191009 80 190 1.0 4.0 0.00 0.00 0.00 42 1015.9
20260505190507 80 179 1.0 4.0 0.00 0.00 0.00 1016.1
20260505190037 81 168 2.0 4.0 0.00 0.00 0.00 42 1016.0
20260505185516 81 150 0.0 5.0 0.00 0.00 0.00 42 1016.1
20260505185007 81 181 2.0 6.0 0.00 0.00 0.00 42 1016.2
20260505184526 80 192 2.0 6.0 0.00 0.00 0.00 42 1016.2
20260505184009 81 327 1.0 6.0 0.00 0.00 0.00 40 1016.3
20260505183502 81 177 2.0 6.0 0.00 0.00 0.00 41 1016.4
20260505182502 80 178 1.0 5.0 0.00 0.00 0.00 43 1016.6
20260505182003 79 181 1.0 4.0 0.00 0.00 0.00 43 1016.6
20260505181509 80 164 1.0 4.0 0.00 0.00 0.00 43 1016.5
20260505181012 80 240 0.0 4.0 0.00 0.00 0.00 45 1016.6
20260505180504 79 184 1.0 6.0 0.00 0.00 0.00 42 1016.6
20260505180021 79 197 2.0 6.0 0.00 0.00 0.00 42 1016.7
20260505175504 79 176 2.0 6.0 0.00 0.00 0.00 43 1016.6
20260505175005 78 286 1.0 6.0 0.00 0.00 0.00 44 1016.6
20260505174521 78 261 1.0 6.0 0.00 0.00 0.00 48 1016.6
20260505174009 78 254 1.0 6.0 0.00 0.00 0.00 45 1016.7
20260505173507 78 193 0.0 6.0 0.00 0.00 0.00 47 1016.8
20260505173022 78 261 1.0 6.0 0.00 0.00 0.00 45 1016.8
20260505172502 77 178 2.0 8.0 0.00 0.00 0.00 46 1016.8
20260505172002 77 182 1.0 8.0 0.00 0.00 0.00 46 1016.9
20260505171004 76 209 3.0 5.0 0.00 0.00 0.00 47 1017.0
20260505170503 76 207 0.0 3.0 0.00 0.00 0.00 51 1016.9
20260505165504 76 162 1.0 4.0 0.00 0.00 0.00 51 1017.1
20260505165004 75 201 1.0 4.0 0.00 0.00 0.00 53 1017.3
20260505164520 75 175 2.0 4.0 0.00 0.00 0.00 52 1017.4
20260505164007 75 212 2.0 4.0 0.00 0.00 0.00 51 1017.3
20260505163508 75 209 2.0 5.0 0.00 0.00 0.00 52 1017.3
20260505163020 75 184 2.0 5.0 0.00 0.00 0.00 53 1017.4
20260505162508 74 267 1.0 3.0 0.00 0.00 0.00 53 1017.4
20260505162012 74 240 0.0 3.0 0.00 0.00 0.00 55 1017.4
20260505161524 74 235 0.0 6.0 0.00 0.00 0.00 55 1017.4
20260505161003 73 227 0.0 6.0 0.00 0.00 0.00 56 1017.4
20260505160503 74 198 2.0 5.0 0.00 0.00 0.00 54 1017.5
20260505153023 72 272 0.0 3.0 0.00 0.00 0.00 58 1017.8
20260505152508 72 289 1.0 3.0 0.00 0.00 0.00 58 1017.7
20260505152013 72 173 1.0 3.0 0.00 0.00 0.00 58 1017.8
20260505151528 71 279 1.0 3.0 0.00 0.00 0.00 59 1017.8
20260505151007 71 282 0.0 5.0 0.00 0.00 0.00 60 1017.9
20260505150507 71 191 2.0 5.0 0.00 0.00 0.00 60 1018.0
20260505140510 67 218 0.0 2.0 0.00 0.00 0.00 68 1017.7
20260505125011 61 209 0.0 2.0 0.00 0.00 0.00 76 1017.8
20260505124525 60 210 0.0 2.0 0.00 0.00 0.00 76 1017.8
20260505124009 60 248 0.0 2.0 0.00 0.00 0.00 78 1017.7
20260505123506 59 191 0.0 2.0 0.00 0.00 0.00 78 1017.8
20260505122506 58 184 0.0 0.0 0.00 0.00 0.00 81 1017.8
20260505122008 57 175 0.0 0.0 0.00 0.00 0.00 81 1017.7
20260505121009 56 175 0.0 0.0 0.00 0.00 0.00 82 1017.7
20260505120507 56 163 0.0 0.0 0.00 0.00 0.00 84 1017.7
20260505120035 55 163 0.0 2.0 0.00 0.00 0.00 84 1017.8
20260505115510 55 163 0.0 2.0 0.00 0.00 0.00 84 1017.7
20260505115009 55 153 0.0 0.0 0.00 0.00 0.00 84 1017.6
20260505114523 54 84 0.0 0.0 0.00 0.00 0.00 85 1017.6
20260505114008 54 84 0.0 0.0 0.00 0.00 0.00 86 1017.6
20260505113511 53 84 0.0 0.0 0.00 0.00 0.00 87 1017.5
20260505113025 53 84 0.0 0.0 0.00 0.00 0.00 88 1017.5
20260505112508 53 184 0.0 0.0 0.00 0.00 0.00 88 1017.4
20260505112006 53 184 0.0 0.0 0.00 0.00 0.00 88 1017.4
20260505111008 52 184 0.0 0.0 0.00 0.00 0.00 89 1017.2
20260505110506 51 184 0.0 0.0 0.00 0.00 0.00 89 1017.2
20260505102010 51 184 0.0 0.0 0.00 0.00 0.00 87 1016.7
20260505101011 51 184 0.0 0.0 0.00 0.00 0.00 87 1016.6
20260505100509 51 184 0.0 0.0 0.00 0.00 0.00 87 1016.4
20260505100029 51 184 0.0 0.0 0.00 0.00 0.00 87 1016.4
20260505095507 51 184 0.0 0.0 0.00 0.00 0.00 86 1016.4
20260505095008 51 184 0.0 0.0 0.00 0.00 0.00 86 1016.4
20260505094506 52 184 0.0 0.0 0.00 0.00 0.00 86 1016.4
20260505094004 52 184 0.0 0.0 0.00 0.00 0.00 86 1016.4
20260505093504 52 184 0.0 0.0 0.00 0.00 0.00 86 1016.4
20260505093012 52 184 0.0 0.0 0.00 0.00 0.00 86 1016.4
20260505092504 52 184 0.0 0.0 0.00 0.00 0.00 86 1016.3
20260505092004 52 184 0.0 0.0 0.00 0.00 0.00 85 1016.4
20260505091519 52 184 0.0 0.0 0.00 0.00 0.00 85 1016.3
20260505091004 52 184 0.0 0.0 0.00 0.00 0.00 84 1016.3
20260505090506 52 184 0.0 0.0 0.00 0.00 0.00 84 1016.4
20260505090019 52 184 0.0 0.0 0.00 0.00 0.00 83 1016.4
20260505085507 52 184 0.0 0.0 0.00 0.00 0.00 83 1016.2
20260505085009 53 184 0.0 0.0 0.00 0.00 0.00 83 1016.3
20260505084540 53 184 0.0 0.0 0.00 0.00 0.00 82 1016.2
20260505084003 53 184 0.0 0.0 0.00 0.00 0.00 81 1016.3
20260505083504 54 184 0.0 0.0 0.00 0.00 0.00 80 1016.3
20260505083017 54 184 0.0 0.0 0.00 0.00 0.00 80 1016.3
20260505082506 54 184 0.0 0.0 0.00 0.00 0.00 80 1016.2
20260505082004 54 184 0.0 0.0 0.00 0.00 0.00 80 1016.2
20260505081516 55 184 0.0 0.0 0.00 0.00 0.00 79 1016.1
20260505081009 55 184 0.0 0.0 0.00 0.00 0.00 79 1016.0
20260505080504 55 184 0.0 0.0 0.00 0.00 0.00 78 1015.9
20260505080027 56 184 0.0 0.0 0.00 0.00 0.00 77 1015.9
20260505075505 56 184 0.0 0.0 0.00 0.00 0.00 77 1015.9
20260505075007 56 184 0.0 0.0 0.00 0.00 0.00 77 1015.9
20260505074523 56 184 0.0 0.0 0.00 0.00 0.00 77 1015.9
20260505074007 56 184 0.0 0.0 0.00 0.00 0.00 76 1015.9
20260505073508 56 184 0.0 0.0 0.00 0.00 0.00 76 1015.9
20260505073035 56 184 0.0 0.0 0.00 0.00 0.00 76 1016.0
20260505072503 56 184 0.0 0.0 0.00 0.00 0.00 77 1015.9
20260505072004 57 184 0.0 0.0 0.00 0.00 0.00 75 1016.0
20260505071509 57 184 0.0 2.0 0.00 0.00 0.00 75 1015.9
20260505071005 57 185 0.0 2.0 0.00 0.00 0.00 74 1015.8
20260505070505 57 185 0.0 0.0 0.00 0.00 0.00 74 1015.8
20260505070016 57 185 0.0 0.0 0.00 0.00 0.00 74 1015.8
20260505065504 57 185 0.0 0.0 0.00 0.00 0.00 74 1015.8
20260505065003 57 185 0.0 0.0 0.00 0.00 0.00 73 1015.8
20260505064519 57 183 0.0 0.0 0.00 0.00 0.00 73 1015.9
20260505064007 58 183 0.0 0.0 0.00 0.00 0.00 73 1015.9
20260505063508 58 183 0.0 0.0 0.00 0.00 0.00 72 1015.9
20260505063029 58 183 0.0 0.0 0.00 0.00 0.00 72 1015.8
20260505062509 58 182 0.0 0.0 0.00 0.00 0.00 71 1015.8
20260505062009 58 182 0.0 2.0 0.00 0.00 0.00 71 1015.9
20260505061517 59 182 0.0 2.0 0.00 0.00 0.00 71 1015.8
20260505061003 59 179 0.0 2.0 0.00 0.00 0.00 71 1015.9
20260505060503 59 188 0.0 2.0 0.00 0.00 0.00 71 1015.9
20260505060011 59 188 0.0 2.0 0.00 0.00 0.00 70 1015.9
20260505055505 59 190 0.0 2.0 0.00 0.00 0.00 70 1015.9